sat.trackr.live / text

‹ back to catalog

BEIDOU-3S IGSO-1S (C31)

NORAD 40549 · 2015-019A

PAYLOAD INACTIVE UNKNOWN

§ Identity

Operator
Country
PRC
Launch date
2015-03-30
Launch site
XICLF
Launch vehicle
Mass (kg)
RCS (m²)
11.79

Purposes: comms, nav

External: N2YO · Heavens-Above · Gunter

§ Orbital elements

Epoch: 2026-05-24T21:22:21.633024Z

Period
1,436.34 min
Inclination
49.2396°
Eccentricity
0.0038013
Mean motion
1.00255053 rev/d
Perigee alt
35,631.0 km
Apogee alt
35,951.6 km
Semi-major
42,169.4 km
B*
0.0000e+0
RAAN
295.7389°
Arg perigee
189.7987°
Mean anomaly
170.8287°
Rev number
4,084

§ Raw data

BEIDOU-3S IGSO-1S (C31)1 40549U 15019A   26144.89052816 -.00000189  00000+0  00000+0 0  99912 40549  49.2396 295.7389 0038013 189.7987 170.8287  1.00255053 40844

JSON: /api/v1/satellites/40549 · /tle

For live sub-satellite position, see the globe view (requires WebGL).

§ Visibility from observer

Set your observer location to see the next 7 days of passes ≥ 10°. The values pass through the URL so the page stays shareable.

No JS? Fill the form by hand. The geolocation button needs JavaScript.